Location: Hermaringen
(48.5952°N, 10.2585°E)
Time: 21:31:03
(UTC+00:00)

Cosmos 2026 Rocket - Pass Details

Date: 18 November 2025
Orbit: 937 x 1000 km, 82.9° (Epoch: 04 December)

Event Time Altitude Azimuth Distance (km) Brightness Sun altitude
Rises 18:13:14 0° 349° (N) 3,615 7.1 -25.7°
Reaches altitude 10° 18:15:42 10° 349° (NNW) 2,670 6.4 -26.1°
Maximum altitude 18:21:48 79° 264° (W) 971 4.0 -27.2°
Drops below altitude 10° 18:27:56 10° 178° (S) 2,685 6.3 -28.2°
Sets 18:30:26 0° 178° (S) 3,636 7.0 -28.6°
